Location: Unspecified
(0.0000°N, 0.0000°E)
Time: 07:54:25
(UTC+00:00)

deb Delta 104 - Pass Details

Date: 14 March 2026
Orbit: 1430 x 1579 km, 102.3° (Epoch: 17 April)

Event Time Altitude Azimuth Distance (km) Brightness Sun altitude
Rises 04:41:23 0° 22° (NNE) 4,754 ? -22.0°
Reaches altitude 10° 04:44:16 10° 24° (NNE) 3,770 ? -21.2°
Maximum altitude 04:53:08 70° 107° (ESE) 1,650 ? -19.0°
Drops below altitude 10° 05:01:50 10° 189° (S) 3,718 ? -16.8°
Sets 05:04:40 0° 191° (S) 4,685 ? -16.1°
